Weather History for Hattiesburg, MS

Change the Weather History Date:

Wednesday, November 7, 2012

  Actual Average Record
Temperature  
Mean Temperature 53 °F 60 °F  
Max Temperature 67 °F 73 °F 86 °F (2005)
Min Temperature 38 °F 47 °F 28 °F (1959)
Degree Days  
Heating Degree Days 12 6  
Month to date heating degree days 41 39  
Since 1 July heating degree days 116 114  
Cooling Degree Days 0 1  
Month to date cooling degree days 6 11  
Year to date cooling degree days 2713 2373  
Growing Degree Days 2 (Base 50)    
Moisture  
Dew Point 37 °F    
Average Humidity 61    
Maximum Humidity 92    
Minimum Humidity 29    
Precipitation  
Precipitation 0.00 in 0.14 in 0.80 in (1978)
Month to date precipitation 0.10 0.93  
Year to date precipitation 59.73 50.92  
Sea Level Pressure  
Sea Level Pressure 30.08 in    
Wind  
Wind Speed 5 mph (NW)    
Max Wind Speed 21 mph    
Max Gust Speed 25 mph    
Visibility 10 miles    
Events      
T = Trace of Precipitation, MM = Missing Value Source: NWS Daily Summary

Daily Weather History Graph

Daily Weather History Graph

Search for Another Location

Airport:

Trip Planner

Search our weather history database for the weather conditions in past years. The results will help you decide how hot, cold, wet, or windy it might be!

Date:

Astronomy

Nov. 07, 2012 Rise Set
Actual Time 6:17 AM CST 5:03 PM CST
Civil Twilight 5:52 AM CST 5:28 PM CST
Nautical Twilight 5:23 AM CST 5:57 PM CST
Astronomical Twilight 4:55 AM CST 6:25 PM CST
Moon No Moon Rise 12:48 PM CST (11/7)
Length of Visible Light 11h 35m
Length of Day
10h 45m
Last Quarter, 43% of the Moon is Illuminated
Nov 7
Last Quarter
Nov 13
New
Nov 20
First Quarter
Nov 28
Full
Dec 6
Last Quarter

Hourly Weather History & Observations

Time (CST) Temp. Dew Point Humidity Pressure Visibility Wind Dir Wind Speed Gust Speed Precip Events Conditions
12:53 AM 42.1 °F 37.9 °F 85% 30.06 in 10.0 mi Calm Calm - N/A   Clear
1:53 AM 41.0 °F 37.9 °F 89% 30.06 in 10.0 mi Calm Calm - N/A   Clear
2:53 AM 39.9 °F 37.0 °F 89% 30.05 in 10.0 mi Calm Calm - N/A   Clear
3:53 AM 39.0 °F 37.0 °F 93% 30.05 in 9.0 mi Calm Calm - N/A   Clear
4:53 AM 39.0 °F 36.0 °F 89% 30.05 in 10.0 mi Calm Calm - N/A   Clear
5:53 AM 39.0 °F 36.0 °F 89% 30.06 in 10.0 mi Calm Calm - N/A   Clear
6:53 AM 39.9 °F 36.0 °F 86% 30.07 in 10.0 mi Calm Calm - N/A   Clear
7:53 AM 50.0 °F 45.0 °F 83% 30.09 in 10.0 mi WNW 5.8 mph - N/A   Clear
8:53 AM 55.9 °F 45.0 °F 67% 30.09 in 10.0 mi NW 5.8 mph - N/A   Clear
9:53 AM 60.1 °F 44.1 °F 55% 30.09 in 10.0 mi NNW 6.9 mph - N/A   Clear
10:53 AM 62.1 °F 39.9 °F 44% 30.07 in 10.0 mi NNW 10.4 mph 19.6 mph N/A   Clear
11:53 AM 64.9 °F 36.0 °F 34% 30.05 in 10.0 mi NW 13.8 mph 20.7 mph N/A   Clear
12:53 PM 66.0 °F 35.1 °F 32% 30.02 in 10.0 mi NNW 12.7 mph 21.9 mph N/A   Clear
1:53 PM 66.0 °F 36.0 °F 33% 30.01 in 10.0 mi WNW 12.7 mph 18.4 mph N/A   Clear
2:53 PM 66.0 °F 34.0 °F 30% 30.00 in 10.0 mi NW 11.5 mph 20.7 mph N/A   Clear
3:53 PM 64.9 °F 34.0 °F 32% 30.01 in 10.0 mi WNW 13.8 mph 20.7 mph N/A   Clear
4:53 PM 62.1 °F 35.1 °F 37% 30.03 in 10.0 mi NW 8.1 mph - N/A   Clear
5:53 PM 57.9 °F 36.0 °F 44% 30.06 in 10.0 mi NW 4.6 mph - N/A   Clear
6:53 PM 54.0 °F 37.0 °F 53% 30.10 in 10.0 mi NNW 3.5 mph - N/A   Clear
7:53 PM 54.0 °F 37.0 °F 53% 30.13 in 10.0 mi North 5.8 mph - N/A   Clear
8:53 PM 51.1 °F 37.0 °F 59% 30.15 in 10.0 mi NNW 3.5 mph - N/A   Clear
9:53 PM 51.1 °F 35.1 °F 54% 30.17 in 10.0 mi North 5.8 mph - N/A   Clear
10:53 PM 48.0 °F 36.0 °F 63% 30.18 in 10.0 mi Calm Calm - N/A   Clear
11:53 PM 41.0 °F 36.0 °F 82% 30.18 in 10.0 mi Calm Calm - N/A   Clear